| time (UTC) | temp F | wind direction | speed MPH | gust MPH | rain 1hr in | rain 24hr in | rain mn in | humidity % | barometer mb |
| 20260905224520 | 90 | 348 | 4.0 | 11.0 | 0.00 | 0.00 | 0.00 | 100 | 1014.8 |
| 20260905224236 | 90 | 348 | 4.0 | 11.0 | 0.00 | 0.00 | 0.00 | 100 | 1014.8 |
| 20260905223736 | 90 | 330 | 5.0 | 10.0 | 0.00 | 0.00 | 0.00 | 100 | 1014.6 |
| 20260905223451 | 90 | 327 | 6.0 | 7.0 | 0.00 | 0.00 | 0.00 | 100 | 1014.7 |
| 20260905223236 | 90 | 327 | 6.0 | 7.0 | 0.00 | 0.00 | 0.00 | 100 | 1014.7 |
| 20260905222736 | 90 | 326 | 7.0 | 10.0 | 0.00 | 0.00 | 0.00 | 100 | 1014.7 |
| 20260905222455 | 90 | 19 | 5.0 | 11.0 | 0.00 | 0.00 | 0.00 | 100 | 1014.6 |
| 20260905222236 | 90 | 19 | 5.0 | 11.0 | 0.00 | 0.00 | 0.00 | 100 | 1014.6 |
| 20260905221736 | 91 | 341 | 8.0 | 11.0 | 0.00 | 0.00 | 0.00 | 100 | 1014.6 |
| 20260905221236 | 91 | 358 | 8.0 | 13.0 | 0.00 | 0.00 | 0.00 | 100 | 1014.5 |
| 20260905220736 | 91 | 338 | 9.0 | 14.0 | 0.00 | 0.00 | 0.00 | 100 | 1014.6 |
| 20260905220546 | 91 | 334 | 3.0 | 10.0 | 0.00 | 0.00 | 0.00 | 100 | 1014.6 |
| 20260905220236 | 91 | 334 | 3.0 | 10.0 | 0.00 | 0.00 | 0.00 | 100 | 1014.6 |
| 20260905215736 | 92 | 15 | 2.0 | 14.0 | 0.00 | 0.00 | 0.00 | 100 | 1014.5 |
| 20260905215236 | 92 | 334 | 6.0 | 10.0 | 0.00 | 0.00 | 0.00 | 100 | 1014.4 |
| 20260905215008 | 92 | 312 | 7.0 | 9.0 | 0.00 | 0.00 | 0.00 | 100 | 1014.4 |
| 20260905214736 | 92 | 312 | 7.0 | 9.0 | 0.00 | 0.00 | 0.00 | 100 | 1014.4 |
| 20260905214236 | 92 | 337 | 5.0 | 9.0 | 0.00 | 0.00 | 0.00 | 100 | 1014.4 |
| 20260905213736 | 93 | 14 | 2.0 | 12.0 | 0.00 | 0.00 | 0.00 | 100 | 1014.4 |
| 20260905213236 | 93 | 317 | 6.0 | 11.0 | 0.00 | 0.00 | 0.00 | 100 | 1014.2 |
| 20260905212736 | 94 | 330 | 8.0 | 15.0 | 0.00 | 0.00 | 0.00 | 100 | 1014.2 |
| 20260905212236 | 94 | 315 | 5.0 | 16.0 | 0.00 | 0.00 | 0.00 | 100 | 1014.2 |
| 20260905212029 | 94 | 303 | 9.0 | 9.0 | 0.00 | 0.00 | 0.00 | 100 | 1014.3 |
| 20260905211736 | 94 | 303 | 9.0 | 9.0 | 0.00 | 0.00 | 0.00 | 100 | 1014.3 |
| 20260905211236 | 94 | 331 | 7.0 | 11.0 | 0.00 | 0.00 | 0.00 | 100 | 1014.3 |
| 20260905210736 | 94 | 295 | 4.0 | 9.0 | 0.00 | 0.00 | 0.00 | 100 | 1014.4 |
| 20260905210236 | 94 | 319 | 4.0 | 15.0 | 0.00 | 0.00 | 0.00 | 100 | 1014.4 |
| 20260905210040 | 94 | 286 | 9.0 | 13.0 | 0.00 | 0.00 | 0.00 | 100 | 1014.4 |
| 20260905205737 | 94 | 286 | 9.0 | 13.0 | 0.00 | 0.00 | 0.00 | 100 | 1014.4 |
| 20260905205236 | 94 | 299 | 5.0 | 12.0 | 0.00 | 0.00 | 0.00 | 100 | 1014.4 |
| 20260905204736 | 94 | 279 | 3.0 | 10.0 | 0.00 | 0.00 | 0.00 | 100 | 1014.3 |
| 20260905204236 | 94 | 333 | 7.0 | 11.0 | 0.00 | 0.00 | 0.00 | 100 | 1014.3 |
| 20260905203736 | 94 | 293 | 5.0 | 12.0 | 0.00 | 0.00 | 0.00 | 100 | 1014.3 |
| 20260905203236 | 94 | 309 | 5.0 | 14.0 | 0.00 | 0.00 | 0.00 | 100 | 1014.3 |
| 20260905203125 | 94 | 309 | 8.0 | 14.0 | 0.00 | 0.00 | 0.00 | 100 | 1014.1 |
| 20260905202736 | 94 | 309 | 8.0 | 14.0 | 0.00 | 0.00 | 0.00 | 100 | 1014.1 |
| 20260905202236 | 95 | 313 | 14.0 | 14.0 | 0.00 | 0.00 | 0.00 | 100 | 1014.2 |
| 20260905201736 | 95 | 254 | 2.0 | 13.0 | 0.00 | 0.00 | 0.00 | 100 | 1014.2 |
| 20260905201236 | 95 | 295 | 4.0 | 10.0 | 0.00 | 0.00 | 0.00 | 100 | 1014.2 |
| 20260905201028 | 95 | 9 | 4.0 | 14.0 | 0.00 | 0.00 | 0.00 | 100 | 1014.2 |
| 20260905200736 | 95 | 9 | 4.0 | 14.0 | 0.00 | 0.00 | 0.00 | 100 | 1014.2 |
| 20260905200627 | 96 | 298 | 11.0 | 15.0 | 0.00 | 0.00 | 0.00 | 100 | 1014.3 |
| 20260905200236 | 96 | 298 | 11.0 | 15.0 | 0.00 | 0.00 | 0.00 | 100 | 1014.3 |
| 20260905200107 | 96 | 305 | 4.0 | 11.0 | 0.00 | 0.00 | 0.00 | 100 | 1014.3 |
| 20260905195736 | 96 | 305 | 4.0 | 11.0 | 0.00 | 0.00 | 0.00 | 100 | 1014.3 |
| 20260905195624 | 96 | 270 | 6.0 | 12.0 | 0.00 | 0.00 | 0.00 | 100 | 1014.4 |
| 20260905195236 | 96 | 270 | 6.0 | 12.0 | 0.00 | 0.00 | 0.00 | 100 | 1014.4 |
| 20260905195141 | 96 | 250 | 3.0 | 13.0 | 0.00 | 0.00 | 0.00 | 100 | 1014.4 |
| 20260905194736 | 96 | 250 | 3.0 | 13.0 | 0.00 | 0.00 | 0.00 | 100 | 1014.4 |
| 20260905194236 | 96 | 281 | 8.0 | 8.0 | 0.00 | 0.00 | 0.00 | 100 | 1014.4 |
| 20260905193736 | 97 | 336 | 6.0 | 13.0 | 0.00 | 0.00 | 0.00 | 100 | 1014.5 |
| 20260905193612 | 97 | 310 | 9.0 | 12.0 | 0.00 | 0.00 | 0.00 | 100 | 1014.6 |
| 20260905193236 | 97 | 310 | 9.0 | 12.0 | 0.00 | 0.00 | 0.00 | 100 | 1014.6 |
| 20260905193117 | 97 | 12 | 6.0 | 12.0 | 0.00 | 0.00 | 0.00 | 100 | 1014.6 |
| 20260905192737 | 97 | 12 | 6.0 | 12.0 | 0.00 | 0.00 | 0.00 | 100 | 1014.6 |
| 20260905192507 | 97 | 293 | 3.0 | 12.0 | 0.00 | 0.00 | 0.00 | 100 | 1014.7 |
| 20260905192237 | 97 | 293 | 3.0 | 12.0 | 0.00 | 0.00 | 0.00 | 100 | 1014.7 |
| 20260905192114 | 98 | 270 | 11.0 | 14.0 | 0.00 | 0.00 | 0.00 | 100 | 1014.9 |
| 20260905191737 | 98 | 270 | 11.0 | 14.0 | 0.00 | 0.00 | 0.00 | 100 | 1014.9 |
| 20260905191237 | 98 | 285 | 12.0 | 12.0 | 0.00 | 0.00 | 0.00 | 100 | 1014.9 |
| 20260905191147 | 99 | 274 | 5.0 | 14.0 | 0.00 | 0.00 | 0.00 | 100 | 1014.9 |
| 20260905190737 | 99 | 274 | 5.0 | 14.0 | 0.00 | 0.00 | 0.00 | 100 | 1014.9 |
| 20260905190628 | 99 | 322 | 8.0 | 11.0 | 0.00 | 0.00 | 0.00 | 100 | 1014.9 |
| 20260905190237 | 99 | 322 | 8.0 | 11.0 | 0.00 | 0.00 | 0.00 | 100 | 1014.9 |
| 20260905190016 | 99 | 270 | 5.0 | 10.0 | 0.00 | 0.00 | 0.00 | 100 | 1015.0 |
| 20260905185737 | 99 | 270 | 5.0 | 10.0 | 0.00 | 0.00 | 0.00 | 100 | 1015.0 |
| 20260905185657 | 100 | 340 | 7.0 | 11.0 | 0.00 | 0.00 | 0.00 | 100 | 1015.0 |
| 20260905185243 | 100 | 347 | 9.0 | 9.0 | 0.00 | 0.00 | 0.00 | 100 | 1015.1 |
| 20260905185237 | 100 | 340 | 7.0 | 11.0 | 0.00 | 0.00 | 0.00 | 100 | 1015.0 |
| 20260905184737 | 100 | 347 | 9.0 | 9.0 | 0.00 | 0.00 | 0.00 | 100 | 1015.1 |
| 20260905184237 | 101 | 322 | 5.0 | 13.0 | 0.00 | 0.00 | 0.00 | 100 | 1015.1 |
| 20260905183737 | 101 | 324 | 3.0 | 11.0 | 0.00 | 0.00 | 0.00 | 100 | 1015.0 |
| 20260905183258 | 104 | 306 | 4.0 | 11.0 | 0.00 | 0.00 | 0.00 | 100 | 1015.1 |
| 20260905183237 | 102 | 288 | 5.0 | 11.0 | 0.00 | 0.00 | 0.00 | 100 | 1015.0 |
| 20260905182737 | 104 | 306 | 4.0 | 11.0 | 0.00 | 0.00 | 0.00 | 100 | 1015.1 |
| 20260905182619 | 106 | 284 | 2.0 | 11.0 | 0.00 | 0.00 | 0.00 | 100 | 1015.1 |
| 20260905182237 | 106 | 284 | 2.0 | 11.0 | 0.00 | 0.00 | 0.00 | 100 | 1015.1 |
| 20260905182012 | 109 | 299 | 5.0 | 11.0 | 0.00 | 0.00 | 0.00 | 100 | 1015.3 |
| 20260905181737 | 109 | 299 | 5.0 | 11.0 | 0.00 | 0.00 | 0.00 | 100 | 1015.3 |
| 20260905181530 | 108 | 322 | 6.0 | 14.0 | 0.00 | 0.00 | 0.00 | 100 | 1015.3 |
| 20260905181237 | 108 | 322 | 6.0 | 14.0 | 0.00 | 0.00 | 0.00 | 100 | 1015.3 |
| 20260905181111 | 117 | 258 | 3.0 | 14.0 | 0.00 | 0.00 | 0.00 | 100 | 1015.3 |
| 20260905180737 | 117 | 258 | 3.0 | 14.0 | 0.00 | 0.00 | 0.00 | 100 | 1015.3 |
| 20260905180638 | 120 | 241 | 9.0 | 9.0 | 0.00 | 0.00 | 0.00 | 100 | 1015.2 |
| 20260905180237 | 120 | 241 | 9.0 | 9.0 | 0.00 | 0.00 | 0.00 | 100 | 1015.2 |
| 20260905175737 | 119 | 300 | 5.0 | 12.0 | 0.00 | 0.00 | 0.00 | 100 | 1015.4 |
| 20260905175529 | 114 | 267 | 3.0 | 10.0 | 0.00 | 0.00 | 0.00 | 100 | 1015.4 |
| 20260905175237 | 114 | 267 | 3.0 | 10.0 | 0.00 | 0.00 | 0.00 | 100 | 1015.4 |
| 20260905174737 | 114 | 253 | 8.0 | 11.0 | 0.00 | 0.00 | 0.00 | 100 | 1015.4 |
| 20260905174237 | 123 | 277 | 4.0 | 6.0 | 0.00 | 0.00 | 0.00 | 100 | 1015.3 |
| 20260905174027 | 126 | 239 | 5.0 | 10.0 | 0.00 | 0.00 | 0.00 | 100 | 1015.5 |
| 20260905173737 | 126 | 239 | 5.0 | 10.0 | 0.00 | 0.00 | 0.00 | 100 | 1015.5 |
| 20260905173531 | 128 | 258 | 8.0 | 9.0 | 0.00 | 0.00 | 0.00 | 100 | 1015.6 |
| 20260905173237 | 128 | 258 | 8.0 | 9.0 | 0.00 | 0.00 | 0.00 | 100 | 1015.6 |
| 20260905172737 | 129 | 337 | 0.0 | 8.0 | 0.00 | 0.00 | 0.00 | 100 | 1015.6 |
| 20260905172635 | 128 | 260 | 3.0 | 9.0 | 0.00 | 0.00 | 0.00 | 100 | 1015.7 |
| 20260905172237 | 128 | 260 | 3.0 | 9.0 | 0.00 | 0.00 | 0.00 | 100 | 1015.7 |
| 20260905171737 | 126 | 271 | 7.0 | 10.0 | 0.00 | 0.00 | 0.00 | 100 | 1015.8 |
| 20260905171237 | 126 | 274 | 4.0 | 10.0 | 0.00 | 0.00 | 0.00 | 100 | 1016.0 |
| 20260905170941 | 119 | 222 | 5.0 | 10.0 | 0.00 | 0.00 | 0.00 | 100 | 1016.0 |
| 20260905170737 | 119 | 222 | 5.0 | 10.0 | 0.00 | 0.00 | 0.00 | 100 | 1016.0 |
| 20260905170504 | 126 | 268 | 6.0 | 10.0 | 0.00 | 0.00 | 0.00 | 100 | 1016.2 |
| 20260905170238 | 126 | 268 | 6.0 | 10.0 | 0.00 | 0.00 | 0.00 | 100 | 1016.2 |
| 20260905165737 | 123 | 286 | 5.0 | 10.0 | 0.00 | 0.00 | 0.00 | 100 | 1016.2 |
| 20260905165629 | 116 | 279 | 0.0 | 9.0 | 0.00 | 0.00 | 0.00 | 100 | 1016.2 |
| 20260905165237 | 116 | 279 | 0.0 | 9.0 | 0.00 | 0.00 | 0.00 | 100 | 1016.2 |
| 20260905165012 | 124 | 281 | 3.0 | 10.0 | 0.00 | 0.00 | 0.00 | 100 | 1016.2 |
| 20260905165002 | 101 | 135 | 0.0 | 4.0 | 0.00 | 0.00 | 0.00 | 100 | 1016.6 |
| 20260905164737 | 124 | 281 | 3.0 | 10.0 | 0.00 | 0.00 | 0.00 | 100 | 1016.2 |
| 20260905164528 | 119 | 240 | 8.0 | 11.0 | 0.00 | 0.00 | 0.00 | 100 | 1016.4 |
| 20260905164237 | 119 | 240 | 8.0 | 11.0 | 0.00 | 0.00 | 0.00 | 100 | 1016.4 |
| 20260905163957 | 113 | 257 | 2.0 | 7.0 | 0.00 | 0.00 | 0.00 | 100 | 1016.4 |
| 20260905163737 | 113 | 257 | 2.0 | 7.0 | 0.00 | 0.00 | 0.00 | 100 | 1016.4 |
| 20260905163237 | 109 | 244 | 7.0 | 10.0 | 0.00 | 0.00 | 0.00 | 100 | 1016.4 |
| 20260905163041 | 119 | 274 | 1.0 | 9.0 | 0.00 | 0.00 | 0.00 | 100 | 1016.3 |
| 20260905162737 | 119 | 274 | 1.0 | 9.0 | 0.00 | 0.00 | 0.00 | 100 | 1016.3 |
| 20260905162453 | 105 | 312 | 5.0 | 8.0 | 0.00 | 0.00 | 0.00 | 100 | 1016.4 |
| 20260905162237 | 105 | 312 | 5.0 | 8.0 | 0.00 | 0.00 | 0.00 | 100 | 1016.4 |
| 20260905161737 | 106 | 306 | 1.0 | 8.0 | 0.00 | 0.00 | 0.00 | 100 | 1016.4 |
| 20260905161530 | 119 | 286 | 4.0 | 9.0 | 0.00 | 0.00 | 0.00 | 100 | 1016.4 |
| 20260905161237 | 119 | 286 | 4.0 | 9.0 | 0.00 | 0.00 | 0.00 | 100 | 1016.4 |
| 20260905160944 | 120 | 180 | 3.0 | 7.0 | 0.00 | 0.00 | 0.00 | 100 | 1016.5 |
| 20260905160737 | 120 | 180 | 3.0 | 7.0 | 0.00 | 0.00 | 0.00 | 100 | 1016.5 |
| 20260905160611 | 118 | 243 | 5.0 | 8.0 | 0.00 | 0.00 | 0.00 | 100 | 1016.7 |
| 20260905160237 | 118 | 243 | 5.0 | 8.0 | 0.00 | 0.00 | 0.00 | 100 | 1016.7 |
| 20260905160026 | 116 | 286 | 0.0 | 9.0 | 0.00 | 0.00 | 0.00 | 100 | 1016.8 |
| 20260905155737 | 116 | 286 | 0.0 | 9.0 | 0.00 | 0.00 | 0.00 | 100 | 1016.8 |
| 20260905155532 | 113 | 216 | 4.0 | 5.0 | 0.00 | 0.00 | 0.00 | 100 | 1016.7 |
| 20260905155237 | 113 | 216 | 4.0 | 5.0 | 0.00 | 0.00 | 0.00 | 100 | 1016.7 |
| 20260905155029 | 97 | 251 | 4.0 | 10.0 | 0.00 | 0.00 | 0.00 | 100 | 1016.8 |
| 20260905154737 | 97 | 251 | 4.0 | 10.0 | 0.00 | 0.00 | 0.00 | 100 | 1016.8 |
| 20260905154237 | 106 | 244 | 9.0 | 10.0 | 0.00 | 0.00 | 0.00 | 100 | 1016.8 |
| 20260905153737 | 109 | 258 | 0.0 | 0.0 | 0.00 | 0.00 | 0.00 | 100 | 1016.7 |
| 20260905153519 | 99 | 258 | 0.0 | 4.0 | 0.00 | 0.00 | 0.00 | 100 | 1016.7 |
| 20260905153237 | 99 | 258 | 0.0 | 4.0 | 0.00 | 0.00 | 0.00 | 100 | 1016.7 |
| 20260905152738 | 93 | 225 | 1.0 | 7.0 | 0.00 | 0.00 | 0.00 | 100 | 1016.8 |
| 20260905152238 | 94 | 215 | 4.0 | 6.0 | 0.00 | 0.00 | 0.00 | 100 | 1016.8 |
| 20260905152012 | 95 | 270 | 2.0 | 5.0 | 0.00 | 0.00 | 0.00 | 100 | 1016.9 |
| 20260905151738 | 95 | 270 | 2.0 | 5.0 | 0.00 | 0.00 | 0.00 | 100 | 1016.9 |
| 20260905151524 | 97 | 310 | 2.0 | 4.0 | 0.00 | 0.00 | 0.00 | 100 | 1016.9 |
| 20260905151238 | 97 | 310 | 2.0 | 4.0 | 0.00 | 0.00 | 0.00 | 100 | 1016.9 |
| 20260905151027 | 101 | 209 | 2.0 | 4.0 | 0.00 | 0.00 | 0.00 | 100 | 1016.8 |
| 20260905150738 | 101 | 209 | 2.0 | 4.0 | 0.00 | 0.00 | 0.00 | 100 | 1016.8 |
| 20260905150527 | 102 | 208 | 1.0 | 5.0 | 0.00 | 0.00 | 0.00 | 100 | 1016.8 |
| 20260905150238 | 102 | 208 | 1.0 | 5.0 | 0.00 | 0.00 | 0.00 | 100 | 1016.8 |
| 20260905145738 | 97 | 189 | 3.0 | 5.0 | 0.00 | 0.00 | 0.00 | 100 | 1016.8 |
| 20260905145441 | 98 | 270 | 3.0 | 7.0 | 0.00 | 0.00 | 0.00 | 100 | 1016.7 |
| 20260905145238 | 98 | 270 | 3.0 | 7.0 | 0.00 | 0.00 | 0.00 | 100 | 1016.7 |
| 20260905144946 | 101 | 277 | 5.0 | 8.0 | 0.00 | 0.00 | 0.00 | 100 | 1016.7 |
| 20260905144738 | 101 | 277 | 5.0 | 8.0 | 0.00 | 0.00 | 0.00 | 100 | 1016.7 |
| 20260905144238 | 99 | 209 | 7.0 | 9.0 | 0.00 | 0.00 | 0.00 | 100 | 1016.7 |
| 20260905144009 | 98 | 270 | 2.0 | 7.0 | 0.00 | 0.00 | 0.00 | 100 | 1016.6 |
| 20260905143738 | 98 | 270 | 2.0 | 7.0 | 0.00 | 0.00 | 0.00 | 100 | 1016.6 |
| 20260905143238 | 99 | 326 | 3.0 | 6.0 | 0.00 | 0.00 | 0.00 | 100 | 1016.7 |
| 20260905143037 | 100 | 119 | 1.0 | 4.0 | 0.00 | 0.00 | 0.00 | 100 | 1016.7 |
| 20260905142738 | 100 | 119 | 1.0 | 4.0 | 0.00 | 0.00 | 0.00 | 100 | 1016.7 |
| 20260905142613 | 99 | 344 | 1.0 | 4.0 | 0.00 | 0.00 | 0.00 | 100 | 1016.6 |
| 20260905142238 | 99 | 344 | 1.0 | 4.0 | 0.00 | 0.00 | 0.00 | 100 | 1016.6 |
| 20260905142007 | 99 | 258 | 2.0 | 6.0 | 0.00 | 0.00 | 0.00 | 100 | 1016.6 |
| 20260905141738 | 99 | 258 | 2.0 | 6.0 | 0.00 | 0.00 | 0.00 | 100 | 1016.6 |
| 20260905141238 | 100 | 232 | 5.0 | 6.0 | 0.00 | 0.00 | 0.00 | 100 | 1016.6 |
| 20260905141037 | 102 | 244 | 4.0 | 6.0 | 0.00 | 0.00 | 0.00 | 100 | 1016.6 |
| 20260905140738 | 102 | 244 | 4.0 | 6.0 | 0.00 | 0.00 | 0.00 | 100 | 1016.6 |
| 20260905140238 | 102 | 255 | 5.0 | 5.0 | 0.00 | 0.00 | 0.00 | 100 | 1016.6 |
| 20260905140002 | 102 | 160 | 0.0 | 3.0 | 0.00 | 0.00 | 0.00 | 100 | 1016.7 |
| 20260905135738 | 102 | 160 | 0.0 | 3.0 | 0.00 | 0.00 | 0.00 | 100 | 1016.7 |
| 20260905135419 | 103 | 227 | 3.0 | 3.0 | 0.00 | 0.00 | 0.00 | 100 | 1016.6 |
| 20260905135238 | 103 | 227 | 3.0 | 3.0 | 0.00 | 0.00 | 0.00 | 100 | 1016.6 |
| 20260905134950 | 102 | 153 | 0.0 | 3.0 | 0.00 | 0.00 | 0.00 | 100 | 1016.6 |
| 20260905134738 | 102 | 153 | 0.0 | 3.0 | 0.00 | 0.00 | 0.00 | 100 | 1016.6 |
| 20260905134238 | 102 | 92 | 2.0 | 5.0 | 0.00 | 0.00 | 0.00 | 100 | 1016.6 |
| 20260905133905 | 102 | 153 | 5.0 | 5.0 | 0.00 | 0.00 | 0.00 | 100 | 1016.7 |
| 20260905133738 | 102 | 153 | 5.0 | 5.0 | 0.00 | 0.00 | 0.00 | 100 | 1016.7 |
| 20260905133238 | 102 | 156 | 3.0 | 4.0 | 0.00 | 0.00 | 0.00 | 100 | 1016.6 |
| 20260905133033 | 101 | 135 | 0.0 | 4.0 | 0.00 | 0.00 | 0.00 | 100 | 1016.6 |
| 20260905132738 | 101 | 135 | 0.0 | 4.0 | 0.00 | 0.00 | 0.00 | 100 | 1016.6 |
| 20260905132238 | 101 | 171 | 0.0 | 3.0 | 0.00 | 0.00 | 0.00 | 100 | 1016.7 |
| 20260905131738 | 100 | 210 | 2.0 | 4.0 | 0.00 | 0.00 | 0.00 | 100 | 1016.6 |
| 20260905131239 | 100 | 178 | 0.0 | 3.0 | 0.00 | 0.00 | 0.00 | 100 | 1016.6 |
| 20260905130738 | 98 | 230 | 1.0 | 4.0 | 0.00 | 0.00 | 0.00 | 100 | 1016.6 |
| 20260905130713 | 89 | 260 | 4.0 | 5.0 | 0.00 | 0.00 | 0.00 | 100 | 1016.0 |
| 20260905130710 | 89 | 279 | 0.0 | 9.0 | 0.00 | 0.00 | 0.00 | 100 | 1016.0 |
| 20260905130238 | 98 | 180 | 0.0 | 5.0 | 0.00 | 0.00 | 0.00 | 100 | 1016.6 |
| 20260905125738 | 97 | 209 | 2.0 | 5.0 | 0.00 | 0.00 | 0.00 | 100 | 1016.6 |
| 20260905125238 | 95 | 220 | 4.0 | 5.0 | 0.00 | 0.00 | 0.00 | 100 | 1016.6 |
| 20260905125015 | 94 | 268 | 0.0 | 4.0 | 0.00 | 0.00 | 0.00 | 100 | 1016.5 |
| 20260905124738 | 94 | 268 | 0.0 | 4.0 | 0.00 | 0.00 | 0.00 | 100 | 1016.5 |
| 20260905124238 | 89 | 232 | 3.0 | 5.0 | 0.00 | 0.00 | 0.00 | 100 | 1016.5 |
| 20260905123738 | 84 | 215 | 3.0 | 5.0 | 0.00 | 0.00 | 0.00 | 100 | 1016.3 |
| 20260905123651 | 76 | 143 | 0.0 | 0.0 | 0.00 | 0.07 | 0.00 | 100 | 1015.7 |
| 20260905123238 | 84 | 147 | 0.0 | 4.0 | 0.00 | 0.00 | 0.00 | 100 | 1016.3 |
| 20260905122738 | 83 | 147 | 0.0 | 0.0 | 0.00 | 0.00 | 0.00 | 100 | 1016.3 |
| 20260905122238 | 82 | 147 | 0.0 | 0.0 | 0.00 | 0.00 | 0.00 | 100 | 1016.4 |
| 20260905121923 | 82 | 147 | 0.0 | 0.0 | 0.00 | 0.00 | 0.00 | 100 | 1016.5 |
| 20260905121738 | 82 | 147 | 0.0 | 0.0 | 0.00 | 0.00 | 0.00 | 100 | 1016.5 |
| 20260905121238 | 81 | 147 | 0.0 | 0.0 | 0.00 | 0.00 | 0.00 | 100 | 1016.5 |
| 20260905120919 | 80 | 147 | 0.0 | 0.0 | 0.00 | 0.00 | 0.00 | 100 | 1016.4 |
| 20260905120738 | 80 | 147 | 0.0 | 0.0 | 0.00 | 0.00 | 0.00 | 100 | 1016.4 |
| 20260905120238 | 80 | 147 | 0.0 | 0.0 | 0.00 | 0.00 | 0.00 | 100 | 1016.4 |
| 20260905115946 | 79 | 147 | 0.0 | 0.0 | 0.00 | 0.00 | 0.00 | 100 | 1016.5 |
| 20260905115738 | 79 | 147 | 0.0 | 0.0 | 0.00 | 0.00 | 0.00 | 100 | 1016.5 |
| 20260905115238 | 79 | 147 | 0.0 | 0.0 | 0.00 | 0.00 | 0.00 | 100 | 1016.4 |
| 20260905114853 | 78 | 147 | 0.0 | 0.0 | 0.00 | 0.00 | 0.00 | 100 | 1016.2 |
| 20260905114738 | 78 | 147 | 0.0 | 0.0 | 0.00 | 0.00 | 0.00 | 100 | 1016.2 |
| 20260905114238 | 78 | 147 | 0.0 | 0.0 | 0.00 | 0.00 | 0.00 | 100 | 1016.2 |
| 20260905113929 | 78 | 147 | 0.0 | 0.0 | 0.00 | 0.00 | 0.00 | 100 | 1016.1 |
| 20260905113739 | 78 | 147 | 0.0 | 0.0 | 0.00 | 0.00 | 0.00 | 100 | 1016.1 |
| 20260905113506 | 77 | 147 | 0.0 | 0.0 | 0.00 | 0.00 | 0.00 | 100 | 1016.0 |
| 20260905113238 | 77 | 147 | 0.0 | 0.0 | 0.00 | 0.00 | 0.00 | 100 | 1016.0 |
| 20260905112738 | 77 | 147 | 0.0 | 0.0 | 0.00 | 0.00 | 0.00 | 100 | 1016.0 |
| 20260905112239 | 77 | 147 | 0.0 | 0.0 | 0.00 | 0.00 | 0.00 | 100 | 1015.9 |
| 20260905111913 | 77 | 147 | 0.0 | 0.0 | 0.00 | 0.00 | 0.00 | 100 | 1016.0 |
| 20260905111739 | 77 | 147 | 0.0 | 0.0 | 0.00 | 0.00 | 0.00 | 100 | 1016.0 |
| 20260905111239 | 77 | 147 | 0.0 | 0.0 | 0.00 | 0.00 | 0.00 | 100 | 1016.0 |
| 20260905110956 | 77 | 147 | 0.0 | 0.0 | 0.00 | 0.00 | 0.00 | 100 | 1016.0 |
| 20260905110739 | 77 | 147 | 0.0 | 0.0 | 0.00 | 0.00 | 0.00 | 100 | 1016.0 |
| 20260905110239 | 77 | 147 | 0.0 | 0.0 | 0.00 | 0.00 | 0.00 | 100 | 1016.0 |
| 20260905105739 | 77 | 147 | 0.0 | 0.0 | 0.00 | 0.00 | 0.00 | 100 | 1015.9 |
| 20260905105239 | 77 | 147 | 0.0 | 0.0 | 0.00 | 0.00 | 0.00 | 100 | 1015.9 |
| 20260905104930 | 77 | 147 | 0.0 | 0.0 | 0.00 | 0.00 | 0.00 | 100 | 1015.9 |
| 20260905104739 | 77 | 147 | 0.0 | 0.0 | 0.00 | 0.00 | 0.00 | 100 | 1015.9 |
| 20260905104239 | 77 | 147 | 0.0 | 0.0 | 0.00 | 0.00 | 0.00 | 100 | 1015.8 |
| 20260905103939 | 77 | 147 | 0.0 | 0.0 | 0.00 | 0.00 | 0.00 | 100 | 1015.8 |
| 20260905103739 | 77 | 147 | 0.0 | 0.0 | 0.00 | 0.00 | 0.00 | 100 | 1015.8 |
| 20260905103239 | 77 | 147 | 0.0 | 0.0 | 0.00 | 0.00 | 0.00 | 100 | 1015.8 |
| 20260905103112 | 77 | 147 | 0.0 | 0.0 | 0.00 | 0.00 | 0.00 | 100 | 1015.7 |
| 20260905102739 | 77 | 147 | 0.0 | 0.0 | 0.00 | 0.00 | 0.00 | 100 | 1015.7 |
| 20260905102239 | 77 | 147 | 0.0 | 0.0 | 0.00 | 0.00 | 0.00 | 100 | 1015.6 |
| 20260905102005 | 77 | 147 | 0.0 | 0.0 | 0.00 | 0.00 | 0.00 | 100 | 1015.6 |
| 20260905101739 | 77 | 147 | 0.0 | 0.0 | 0.00 | 0.00 | 0.00 | 100 | 1015.6 |
| 20260905101239 | 77 | 147 | 0.0 | 0.0 | 0.00 | 0.00 | 0.00 | 100 | 1015.7 |
| 20260905100931 | 77 | 147 | 0.0 | 0.0 | 0.00 | 0.00 | 0.00 | 100 | 1015.7 |
| 20260905100739 | 77 | 147 | 0.0 | 0.0 | 0.00 | 0.00 | 0.00 | 100 | 1015.7 |
| 20260905100239 | 77 | 147 | 0.0 | 0.0 | 0.00 | 0.00 | 0.00 | 100 | 1015.8 |
| 20260905095957 | 77 | 147 | 0.0 | 0.0 | 0.00 | 0.00 | 0.00 | 100 | 1015.7 |
| 20260905095739 | 77 | 147 | 0.0 | 0.0 | 0.00 | 0.00 | 0.00 | 100 | 1015.7 |
| 20260905095520 | 77 | 147 | 0.0 | 0.0 | 0.00 | 0.00 | 0.00 | 100 | 1015.7 |
| 20260905095239 | 77 | 147 | 0.0 | 0.0 | 0.00 | 0.00 | 0.00 | 100 | 1015.7 |
| 20260905095010 | 77 | 147 | 0.0 | 0.0 | 0.00 | 0.00 | 0.00 | 100 | 1015.6 |
| 20260905094739 | 77 | 147 | 0.0 | 0.0 | 0.00 | 0.00 | 0.00 | 100 | 1015.6 |
| 20260905094508 | 77 | 147 | 0.0 | 0.0 | 0.00 | 0.00 | 0.00 | 100 | 1015.6 |
| 20260905094239 | 77 | 147 | 0.0 | 0.0 | 0.00 | 0.00 | 0.00 | 100 | 1015.6 |
| 20260905093739 | 77 | 147 | 0.0 | 0.0 | 0.00 | 0.00 | 0.00 | 100 | 1015.4 |
| 20260905093543 | 77 | 147 | 0.0 | 0.0 | 0.00 | 0.00 | 0.00 | 100 | 1015.5 |
| 20260905093239 | 77 | 147 | 0.0 | 0.0 | 0.00 | 0.00 | 0.00 | 100 | 1015.5 |
| 20260905092739 | 77 | 147 | 0.0 | 0.0 | 0.00 | 0.00 | 0.00 | 100 | 1015.4 |
| 20260905092239 | 77 | 147 | 0.0 | 0.0 | 0.00 | 0.00 | 0.00 | 100 | 1015.5 |
| 20260905091927 | 78 | 147 | 0.0 | 0.0 | 0.00 | 0.00 | 0.00 | 100 | 1015.5 |
| 20260905091739 | 78 | 147 | 0.0 | 0.0 | 0.00 | 0.00 | 0.00 | 100 | 1015.5 |
| 20260905091532 | 78 | 147 | 0.0 | 0.0 | 0.00 | 0.00 | 0.00 | 100 | 1015.4 |
| 20260905091239 | 78 | 147 | 0.0 | 0.0 | 0.00 | 0.00 | 0.00 | 100 | 1015.4 |
| 20260905091037 | 77 | 147 | 0.0 | 0.0 | 0.00 | 0.00 | 0.00 | 100 | 1015.4 |
| 20260905090739 | 77 | 147 | 0.0 | 0.0 | 0.00 | 0.00 | 0.00 | 100 | 1015.4 |
| 20260905090239 | 78 | 147 | 0.0 | 0.0 | 0.00 | 0.00 | 0.00 | 100 | 1015.4 |
| 20260905085951 | 78 | 147 | 0.0 | 0.0 | 0.00 | 0.00 | 0.00 | 100 | 1015.4 |
| 20260905085739 | 78 | 147 | 0.0 | 0.0 | 0.00 | 0.00 | 0.00 | 100 | 1015.4 |
| 20260905085502 | 78 | 147 | 0.0 | 0.0 | 0.00 | 0.00 | 0.00 | 100 | 1015.5 |
| 20260905085239 | 78 | 147 | 0.0 | 0.0 | 0.00 | 0.00 | 0.00 | 100 | 1015.5 |
| 20260905084739 | 78 | 147 | 0.0 | 0.0 | 0.00 | 0.00 | 0.00 | 100 | 1015.5 |
| 20260905084239 | 78 | 147 | 0.0 | 0.0 | 0.00 | 0.00 | 0.00 | 100 | 1015.4 |
| 20260905083739 | 78 | 147 | 0.0 | 0.0 | 0.00 | 0.00 | 0.00 | 100 | 1015.4 |
| 20260905083239 | 78 | 147 | 0.0 | 0.0 | 0.00 | 0.00 | 0.00 | 100 | 1015.5 |
| 20260905082739 | 78 | 147 | 0.0 | 0.0 | 0.00 | 0.00 | 0.00 | 100 | 1015.6 |
| 20260905082239 | 78 | 147 | 0.0 | 0.0 | 0.00 | 0.00 | 0.00 | 100 | 1015.5 |
| 20260905081940 | 78 | 147 | 0.0 | 0.0 | 0.00 | 0.00 | 0.00 | 100 | 1015.5 |
| 20260905081739 | 78 | 147 | 0.0 | 0.0 | 0.00 | 0.00 | 0.00 | 100 | 1015.5 |
| 20260905081239 | 78 | 147 | 0.0 | 0.0 | 0.00 | 0.00 | 0.00 | 100 | 1015.5 |
| 20260905080739 | 78 | 147 | 0.0 | 0.0 | 0.00 | 0.00 | 0.00 | 100 | 1015.5 |
| 20260905080239 | 78 | 147 | 0.0 | 0.0 | 0.00 | 0.00 | 0.00 | 100 | 1015.5 |
| 20260905075922 | 78 | 147 | 0.0 | 0.0 | 0.00 | 0.00 | 0.00 | 100 | 1015.5 |
| 20260905075739 | 78 | 147 | 0.0 | 0.0 | 0.00 | 0.00 | 0.00 | 100 | 1015.5 |
| 20260905075239 | 78 | 147 | 0.0 | 0.0 | 0.00 | 0.00 | 0.00 | 100 | 1015.5 |
| 20260905074945 | 78 | 147 | 0.0 | 0.0 | 0.00 | 0.00 | 0.00 | 100 | 1015.6 |
| 20260905074739 | 78 | 147 | 0.0 | 0.0 | 0.00 | 0.00 | 0.00 | 100 | 1015.6 |
| 20260905074506 | 78 | 147 | 0.0 | 0.0 | 0.00 | 0.00 | 0.00 | 100 | 1015.5 |
| 20260905074239 | 78 | 147 | 0.0 | 0.0 | 0.00 | 0.00 | 0.00 | 100 | 1015.5 |
| 20260905073919 | 78 | 147 | 0.0 | 0.0 | 0.00 | 0.00 | 0.00 | 100 | 1015.4 |
| 20260905073739 | 78 | 147 | 0.0 | 0.0 | 0.00 | 0.00 | 0.00 | 100 | 1015.4 |
| 20260905073504 | 78 | 147 | 0.0 | 0.0 | 0.00 | 0.00 | 0.00 | 100 | 1015.5 |
| 20260905073239 | 78 | 147 | 0.0 | 0.0 | 0.00 | 0.00 | 0.00 | 100 | 1015.5 |
| 20260905072945 | 78 | 147 | 0.0 | 0.0 | 0.00 | 0.00 | 0.00 | 100 | 1015.5 |
| 20260905072740 | 78 | 147 | 0.0 | 0.0 | 0.00 | 0.00 | 0.00 | 100 | 1015.5 |
| 20260905072240 | 78 | 147 | 0.0 | 0.0 | 0.00 | 0.00 | 0.00 | 100 | 1015.5 |
| 20260905071940 | 79 | 147 | 0.0 | 0.0 | 0.00 | 0.00 | 0.00 | 100 | 1015.5 |
| 20260905071740 | 79 | 147 | 0.0 | 0.0 | 0.00 | 0.00 | 0.00 | 100 | 1015.5 |
| 20260905071240 | 79 | 147 | 0.0 | 0.0 | 0.00 | 0.00 | 0.00 | 100 | 1015.5 |
| 20260905070740 | 79 | 147 | 0.0 | 0.0 | 0.00 | 0.00 | 0.00 | 100 | 1015.6 |
| 20260905070506 | 79 | 147 | 0.0 | 0.0 | 0.00 | 0.00 | 0.00 | 100 | 1015.5 |
| 20260905070240 | 79 | 147 | 0.0 | 0.0 | 0.00 | 0.00 | 0.00 | 100 | 1015.5 |
| 20260905065740 | 79 | 147 | 0.0 | 0.0 | 0.00 | 0.00 | 0.00 | 100 | 1015.5 |
| 20260905065240 | 79 | 147 | 0.0 | 0.0 | 0.00 | 0.00 | 0.00 | 100 | 1015.7 |
| 20260905064949 | 79 | 147 | 0.0 | 0.0 | 0.00 | 0.00 | 0.00 | 100 | 1015.8 |
| 20260905064740 | 79 | 147 | 0.0 | 0.0 | 0.00 | 0.00 | 0.00 | 100 | 1015.8 |
| 20260905064240 | 79 | 147 | 0.0 | 0.0 | 0.00 | 0.00 | 0.00 | 100 | 1015.8 |
| 20260905063908 | 79 | 147 | 0.0 | 0.0 | 0.00 | 0.00 | 0.00 | 100 | 1015.9 |
| 20260905063740 | 79 | 147 | 0.0 | 0.0 | 0.00 | 0.00 | 0.00 | 100 | 1015.9 |
| 20260905063455 | 79 | 147 | 0.0 | 0.0 | 0.00 | 0.00 | 0.00 | 100 | 1015.9 |
| 20260905063240 | 79 | 147 | 0.0 | 0.0 | 0.00 | 0.00 | 0.00 | 100 | 1015.9 |
| 20260905062740 | 79 | 147 | 0.0 | 0.0 | 0.00 | 0.00 | 0.00 | 100 | 1015.8 |
| 20260905062240 | 79 | 147 | 0.0 | 0.0 | 0.00 | 0.00 | 0.00 | 100 | 1016.0 |
| 20260905061740 | 79 | 147 | 0.0 | 0.0 | 0.00 | 0.00 | 0.00 | 100 | 1015.9 |
| 20260905061240 | 79 | 147 | 0.0 | 0.0 | 0.00 | 0.00 | 0.00 | 100 | 1016.0 |
| 20260905060907 | 79 | 147 | 0.0 | 0.0 | 0.00 | 0.00 | 0.00 | 100 | 1016.1 |
| 20260905060740 | 79 | 147 | 0.0 | 0.0 | 0.00 | 0.00 | 0.00 | 100 | 1016.1 |
| 20260905060240 | 80 | 147 | 0.0 | 0.0 | 0.00 | 0.00 | 0.00 | 100 | 1016.1 |
| 20260905055955 | 80 | 147 | 0.0 | 0.0 | 0.00 | 0.00 | 0.00 | 100 | 1016.1 |
| 20260905055740 | 80 | 147 | 0.0 | 0.0 | 0.00 | 0.00 | 0.00 | 100 | 1016.1 |
| 20260905055240 | 80 | 147 | 0.0 | 0.0 | 0.00 | 0.00 | 0.00 | 100 | 1016.2 |
| 20260905054740 | 80 | 147 | 0.0 | 0.0 | 0.00 | 0.00 | 0.00 | 100 | 1016.3 |
| 20260905054240 | 80 | 147 | 0.0 | 0.0 | 0.00 | 0.00 | 0.00 | 100 | 1016.3 |
| 20260905053918 | 80 | 147 | 0.0 | 0.0 | 0.00 | 0.00 | 0.00 | 100 | 1016.4 |
| 20260905053740 | 80 | 147 | 0.0 | 0.0 | 0.00 | 0.00 | 0.00 | 100 | 1016.4 |
| 20260905053240 | 80 | 147 | 0.0 | 0.0 | 0.00 | 0.00 | 0.00 | 100 | 1016.5 |
| 20260905053028 | 80 | 147 | 0.0 | 0.0 | 0.00 | 0.00 | 0.00 | 100 | 1016.5 |
| 20260905052740 | 80 | 147 | 0.0 | 0.0 | 0.00 | 0.00 | 0.00 | 100 | 1016.5 |
| 20260905052240 | 80 | 147 | 0.0 | 0.0 | 0.00 | 0.00 | 0.00 | 100 | 1016.5 |
| 20260905051740 | 80 | 147 | 0.0 | 0.0 | 0.00 | 0.00 | 0.00 | 100 | 1016.7 |
| 20260905051240 | 80 | 147 | 0.0 | 0.0 | 0.00 | 0.00 | 0.00 | 100 | 1016.7 |
| 20260905050958 | 80 | 147 | 0.0 | 0.0 | 0.00 | 0.00 | 0.00 | 100 | 1016.8 |
| 20260905050740 | 80 | 147 | 0.0 | 0.0 | 0.00 | 0.00 | 0.00 | 100 | 1016.8 |
| 20260905050240 | 80 | 147 | 0.0 | 0.0 | 0.00 | 0.00 | 0.00 | 100 | 1016.8 |
| 20260905045740 | 80 | 147 | 0.0 | 0.0 | 0.00 | 0.00 | 0.00 | 100 | 1016.8 |
| 20260905045445 | 80 | 147 | 0.0 | 0.0 | 0.00 | 0.00 | 0.00 | 100 | 1016.8 |
| 20260905045240 | 80 | 147 | 0.0 | 0.0 | 0.00 | 0.00 | 0.00 | 100 | 1016.8 |
| 20260905045003 | 80 | 147 | 0.0 | 0.0 | 0.00 | 0.00 | 0.00 | 100 | 1017.0 |
| 20260905044740 | 80 | 147 | 0.0 | 0.0 | 0.00 | 0.00 | 0.00 | 100 | 1017.0 |
| 20260905044513 | 80 | 147 | 0.0 | 0.0 | 0.00 | 0.00 | 0.00 | 100 | 1017.0 |
| 20260905044240 | 80 | 147 | 0.0 | 0.0 | 0.00 | 0.00 | 0.00 | 100 | 1017.0 |
| 20260905043740 | 80 | 147 | 0.0 | 0.0 | 0.00 | 0.00 | 0.00 | 100 | 1016.9 |
| 20260905043416 | 80 | 147 | 0.0 | 1.0 | 0.00 | 0.00 | 0.00 | 100 | 1016.8 |
| 20260905043240 | 80 | 147 | 0.0 | 1.0 | 0.00 | 0.00 | 0.00 | 100 | 1016.8 |
| 20260905042740 | 80 | 60 | 0.0 | 0.0 | 0.00 | 0.00 | 0.00 | 100 | 1016.9 |
| 20260905042240 | 81 | 60 | 0.0 | 0.0 | 0.00 | 0.00 | 0.00 | 100 | 1016.9 |
| 20260905041740 | 81 | 60 | 0.0 | 2.0 | 0.00 | 0.00 | 0.00 | 100 | 1016.9 |
| 20260905041240 | 81 | 104 | 2.0 | 3.0 | 0.00 | 0.00 | 0.00 | 100 | 1017.0 |
| 20260905041114 | 81 | 63 | 0.0 | 0.0 | 0.00 | 0.00 | 0.00 | 100 | 1017.0 |
| 20260905040740 | 81 | 63 | 0.0 | 0.0 | 0.00 | 0.00 | 0.00 | 100 | 1017.0 |
| 20260905040240 | 81 | 63 | 0.0 | 2.0 | 0.00 | 0.00 | 0.00 | 100 | 1017.0 |
| 20260905035740 | 81 | 82 | 1.0 | 3.0 | 0.00 | 0.00 | 0.00 | 100 | 1017.0 |
| 20260905035240 | 81 | 115 | 2.0 | 4.0 | 0.00 | 0.00 | 0.00 | 100 | 1017.0 |
| 20260905034741 | 81 | 94 | 2.0 | 3.0 | 0.00 | 0.00 | 0.00 | 100 | 1017.0 |
| 20260905034527 | 81 | 99 | 2.0 | 2.0 | 0.00 | 0.00 | 0.00 | 100 | 1017.0 |
| 20260905034240 | 81 | 99 | 2.0 | 2.0 | 0.00 | 0.00 | 0.00 | 100 | 1017.0 |
| 20260905033740 | 81 | 71 | 0.0 | 3.0 | 0.00 | 0.00 | 0.00 | 100 | 1017.0 |
| 20260905033241 | 81 | 87 | 0.0 | 2.0 | 0.00 | 0.00 | 0.00 | 100 | 1017.1 |
| 20260905033015 | 81 | 8 | 0.0 | 0.0 | 0.00 | 0.00 | 0.00 | 100 | 1017.1 |
| 20260905032741 | 81 | 8 | 0.0 | 0.0 | 0.00 | 0.00 | 0.00 | 100 | 1017.1 |
| 20260905032522 | 81 | 8 | 0.0 | 2.0 | 0.00 | 0.00 | 0.00 | 100 | 1017.2 |
| 20260905032241 | 81 | 8 | 0.0 | 2.0 | 0.00 | 0.00 | 0.00 | 100 | 1017.2 |
| 20260905031741 | 81 | 125 | 0.0 | 0.0 | 0.00 | 0.00 | 0.00 | 100 | 1017.1 |
| 20260905031529 | 81 | 125 | 0.0 | 0.0 | 0.00 | 0.00 | 0.00 | 100 | 1017.1 |
| 20260905031241 | 81 | 125 | 0.0 | 0.0 | 0.00 | 0.00 | 0.00 | 100 | 1017.1 |
| 20260905030741 | 81 | 125 | 0.0 | 0.0 | 0.00 | 0.00 | 0.00 | 100 | 1017.2 |
| 20260905030241 | 81 | 125 | 0.0 | 0.0 | 0.00 | 0.00 | 0.00 | 100 | 1017.2 |
| 20260905025741 | 81 | 125 | 0.0 | 0.0 | 0.00 | 0.00 | 0.00 | 100 | 1017.3 |
| 20260905025241 | 82 | 125 | 0.0 | 0.0 | 0.00 | 0.00 | 0.00 | 100 | 1017.4 |
| 20260905024741 | 82 | 125 | 0.0 | 0.0 | 0.00 | 0.00 | 0.00 | 100 | 1017.4 |
| 20260905024241 | 82 | 125 | 0.0 | 0.0 | 0.00 | 0.00 | 0.00 | 100 | 1017.3 |
| 20260905023741 | 82 | 125 | 0.0 | 0.0 | 0.00 | 0.00 | 0.00 | 100 | 1017.4 |
| 20260905023241 | 82 | 125 | 0.0 | 1.0 | 0.00 | 0.00 | 0.00 | 100 | 1017.3 |
| 20260905023037 | 82 | 109 | 0.0 | 0.0 | 0.00 | 0.00 | 0.00 | 100 | 1017.4 |
| 20260905022741 | 82 | 109 | 0.0 | 0.0 | 0.00 | 0.00 | 0.00 | 100 | 1017.4 |
| 20260905022549 | 82 | 109 | 0.0 | 2.0 | 0.00 | 0.00 | 0.00 | 100 | 1017.4 |
| 20260905022241 | 82 | 109 | 0.0 | 2.0 | 0.00 | 0.00 | 0.00 | 100 | 1017.4 |
| 20260905021741 | 82 | 87 | 1.0 | 2.0 | 0.00 | 0.00 | 0.00 | 100 | 1017.4 |
| 20260905021241 | 82 | 60 | 0.0 | 2.0 | 0.00 | 0.00 | 0.00 | 100 | 1017.4 |
| 20260905020741 | 82 | 98 | 1.0 | 3.0 | 0.00 | 0.00 | 0.00 | 100 | 1017.4 |
| 20260905020241 | 82 | 104 | 2.0 | 5.0 | 0.00 | 0.00 | 0.00 | 100 | 1017.3 |
| 20260905015741 | 83 | 133 | 3.0 | 5.0 | 0.00 | 0.00 | 0.00 | 100 | 1017.3 |
| 20260905015241 | 83 | 99 | 3.0 | 3.0 | 0.00 | 0.00 | 0.00 | 100 | 1017.2 |
| 20260905014741 | 83 | 23 | 0.0 | 0.0 | 0.00 | 0.00 | 0.00 | 100 | 1017.2 |
| 20260905014241 | 83 | 23 | 0.0 | 0.0 | 0.00 | 0.00 | 0.00 | 100 | 1017.2 |
| 20260905014004 | 83 | 23 | 0.0 | 0.0 | 0.00 | 0.00 | 0.00 | 100 | 1017.2 |
| 20260905013741 | 83 | 23 | 0.0 | 0.0 | 0.00 | 0.00 | 0.00 | 100 | 1017.2 |
| 20260905013506 | 83 | 23 | 0.0 | 0.0 | 0.00 | 0.00 | 0.00 | 100 | 1017.3 |
| 20260905013241 | 83 | 23 | 0.0 | 0.0 | 0.00 | 0.00 | 0.00 | 100 | 1017.3 |
| 20260905013035 | 83 | 23 | 0.0 | 0.0 | 0.00 | 0.00 | 0.00 | 100 | 1017.2 |
| 20260905012741 | 83 | 23 | 0.0 | 0.0 | 0.00 | 0.00 | 0.00 | 100 | 1017.2 |
| 20260905012458 | 83 | 23 | 0.0 | 0.0 | 0.00 | 0.00 | 0.00 | 100 | 1017.2 |
| 20260905012241 | 83 | 23 | 0.0 | 0.0 | 0.00 | 0.00 | 0.00 | 100 | 1017.2 |
| 20260905011741 | 83 | 23 | 0.0 | 0.0 | 0.00 | 0.00 | 0.00 | 100 | 1017.2 |
| 20260905011241 | 83 | 23 | 0.0 | 0.0 | 0.00 | 0.00 | 0.00 | 100 | 1017.2 |
| 20260905011011 | 84 | 23 | 0.0 | 0.0 | 0.00 | 0.00 | 0.00 | 100 | 1017.1 |
| 20260905010741 | 84 | 23 | 0.0 | 0.0 | 0.00 | 0.00 | 0.00 | 100 | 1017.1 |
| 20260905010241 | 84 | 23 | 0.0 | 0.0 | 0.00 | 0.00 | 0.00 | 100 | 1017.0 |
| 20260905010124 | 84 | 23 | 0.0 | 0.0 | 0.00 | 0.00 | 0.00 | 100 | 1017.0 |
| 20260905005741 | 84 | 23 | 0.0 | 0.0 | 0.00 | 0.00 | 0.00 | 100 | 1017.0 |
| 20260905005241 | 84 | 23 | 0.0 | 0.0 | 0.00 | 0.00 | 0.00 | 100 | 1017.1 |
| 20260905005041 | 84 | 23 | 0.0 | 0.0 | 0.00 | 0.00 | 0.00 | 100 | 1017.2 |
| 20260905004741 | 84 | 23 | 0.0 | 0.0 | 0.00 | 0.00 | 0.00 | 100 | 1017.2 |
| 20260905004241 | 85 | 23 | 0.0 | 0.0 | 0.00 | 0.00 | 0.00 | 100 | 1017.1 |
| 20260905004112 | 85 | 23 | 0.0 | 0.0 | 0.00 | 0.00 | 0.00 | 100 | 1017.1 |
| 20260905003741 | 85 | 23 | 0.0 | 0.0 | 0.00 | 0.00 | 0.00 | 100 | 1017.1 |
| 20260905003241 | 85 | 23 | 0.0 | 0.0 | 0.00 | 0.00 | 0.00 | 100 | 1016.9 |
| 20260905003028 | 85 | 23 | 0.0 | 0.0 | 0.00 | 0.00 | 0.00 | 100 | 1016.8 |
| 20260905002741 | 85 | 23 | 0.0 | 0.0 | 0.00 | 0.00 | 0.00 | 100 | 1016.8 |
| 20260905002535 | 85 | 23 | 0.0 | 3.0 | 0.00 | 0.00 | 0.00 | 100 | 1016.7 |
| 20260905002241 | 85 | 23 | 0.0 | 3.0 | 0.00 | 0.00 | 0.00 | 100 | 1016.7 |
| 20260905001741 | 85 | 348 | 1.0 | 4.0 | 0.00 | 0.00 | 0.00 | 100 | 1016.8 |
| 20260905001241 | 86 | 7 | 0.0 | 3.0 | 0.00 | 0.00 | 0.00 | 100 | 1016.6 |
| 20260905000741 | 86 | 307 | 1.0 | 4.0 | 0.00 | 0.00 | 0.00 | 100 | 1016.7 |
| 20260905000241 | 86 | 313 | 0.0 | 3.0 | 0.00 | 0.00 | 0.00 | 100 | 1016.5 |
| 20260905000012 | 86 | 306 | 1.0 | 3.0 | 0.00 | 0.00 | 0.00 | 100 | 1016.5 |
| 20260904235741 | 86 | 306 | 1.0 | 3.0 | 0.00 | 0.00 | 0.00 | 100 | 1016.5 |
| 20260904235442 | 86 | 295 | 0.0 | 3.0 | 0.00 | 0.00 | 0.00 | 100 | 1016.5 |
| 20260904235241 | 86 | 295 | 0.0 | 3.0 | 0.00 | 0.00 | 0.00 | 100 | 1016.5 |
| 20260904234926 | 87 | 316 | 3.0 | 3.0 | 0.00 | 0.00 | 0.00 | 100 | 1016.4 |
| 20260904234741 | 87 | 316 | 3.0 | 3.0 | 0.00 | 0.00 | 0.00 | 100 | 1016.4 |
| 20260904234521 | 87 | 8 | 1.0 | 3.0 | 0.00 | 0.00 | 0.00 | 100 | 1016.5 |
| 20260904234447 | 87 | 8 | 1.0 | 3.0 | 0.00 | 0.00 | 0.00 | 100 | 1016.5 |
| 20260904234241 | 87 | 8 | 1.0 | 3.0 | 0.00 | 0.00 | 0.00 | 100 | 1016.5 |
| 20260904233941 | 87 | 279 | 0.0 | 3.0 | 0.00 | 0.00 | 0.00 | 100 | 1016.4 |
| 20260904233741 | 87 | 279 | 0.0 | 3.0 | 0.00 | 0.00 | 0.00 | 100 | 1016.4 |
| 20260904233337 | 88 | 279 | 0.0 | 3.0 | 0.00 | 0.00 | 0.00 | 100 | 1016.3 |
| 20260904233242 | 88 | 279 | 0.0 | 3.0 | 0.00 | 0.00 | 0.00 | 100 | 1016.3 |
| 20260904232941 | 88 | 265 | 0.0 | 3.0 | 0.00 | 0.00 | 0.00 | 100 | 1016.2 |
| 20260904232742 | 88 | 265 | 0.0 | 3.0 | 0.00 | 0.00 | 0.00 | 100 | 1016.2 |
| 20260904232612 | 88 | 264 | 0.0 | 4.0 | 0.00 | 0.00 | 0.00 | 100 | 1016.1 |
| 20260904232536 | 88 | 264 | 0.0 | 4.0 | 0.00 | 0.00 | 0.00 | 100 | 1016.1 |
| 20260904232242 | 88 | 264 | 0.0 | 4.0 | 0.00 | 0.00 | 0.00 | 100 | 1016.1 |
| 20260904232024 | 88 | 274 | 3.0 | 5.0 | 0.00 | 0.00 | 0.00 | 100 | 1016.1 |
| 20260904231742 | 88 | 274 | 3.0 | 5.0 | 0.00 | 0.00 | 0.00 | 100 | 1016.1 |
| 20260904231522 | 89 | 260 | 4.0 | 5.0 | 0.00 | 0.00 | 0.00 | 100 | 1016.0 |
| 20260904231242 | 89 | 260 | 4.0 | 5.0 | 0.00 | 0.00 | 0.00 | 100 | 1016.0 |
| 20260904231050 | 89 | 279 | 0.0 | 9.0 | 0.00 | 0.00 | 0.00 | 100 | 1016.0 |
| 20260904230742 | 89 | 279 | 0.0 | 9.0 | 0.00 | 0.00 | 0.00 | 100 | 1016.0 |
| 20260904230242 | 89 | 293 | 0.0 | 7.0 | 0.00 | 0.00 | 0.00 | 100 | 1015.9 |
| 20260904230021 | 89 | 265 | 5.0 | 9.0 | 0.00 | 0.00 | 0.00 | 100 | 1015.8 |
| 20260904225742 | 89 | 265 | 5.0 | 9.0 | 0.00 | 0.00 | 0.00 | 100 | 1015.8 |
| 20260904225242 | 90 | 274 | 2.0 | 7.0 | 0.00 | 0.00 | 0.00 | 100 | 1015.9 |
| 20260904224742 | 90 | 265 | 4.0 | 6.0 | 0.00 | 0.00 | 0.00 | 100 | 1015.8 |